CZ-6A DEB, 61121

Orbit data source: Space-Track

CZ-6A DEB, 61121 is space debris in LEO originally from a launch on Tue, 06 Aug 2024 UTC launched from the Taiyaun Space Center, China (TSC). Debris objects in space refer to the collection of defunct objects orbiting the Earth. Examples of debris include non-operational satellites, rocket bodies, and fragments generated from explosions, collisions, or faulty payload assembly.

Loading next visibility...
Identifier
61121, 2024-140PP
Orbit
LEO
Country
Flag of CNCN / PRC
Related business
Manufacturer
SAST
Mission
Spacecraft
Bus & Motor
Unknown
Mass
Unknown
Launch date (UTC)
2024-08-06 (2 years ago)
Launch vehicle
Unknown
Launch site
Taiyaun Space Center, China (TSC)
Object type
Payload
Rocket body
Debris
Shape & HBR
Unknown shape, 0.1 m
Radar Cross Section
Small (<0.1 m²)

Expand to show TLE details & history
Last TLE update: 12 hours ago

TLE from 12 hours ago
0 CZ-6A DEB
1 61121U 24140PP  26130.10245041  .00000571  00000-0  17168-3 0  9990
2 61121  88.9413 272.2633 0075048 114.0773 246.8303 14.39640345 90462
Epoch: 2026-05-10T02:27Z
TLE epoch observation values (Epoch: 2026-05-10T02:27:31.715Z)
Latitude
-0.00004°
Longitude
7.4708°
Altitude
784.188 km
Speed
7.45 km/s
True Right ascension
18h 09m 03s
True Declination
0° 00' 00"
Sunlit
Object was in full shadow at epoch
Visualization orbit readout
Latitude
Unknown
Longitude
Unknown
Altitude
Unknown
Speed
Unknown
Apparent Right ascension
Unknown
Apparent Declination
Unknown
Sunlit
N/A
Visualization observer readout
Local Sidereal Time
22:11:24
Azimuth
Unknown
Elevation
Unknown
Doppler factor
Unknown
Orbital elements
Apogee altitude
810.155 km
Perigee altitude
703.065 km
Semi-major axis
7,134.747 km
Eccentricity
0.0075
Inclination
88.9413°
RAAN
272.2633°
Arg. of periapsis
114.0773°
True anomaly
246.04261°
Mean anomaly
246.8303°
Eccentric anomaly
246.43616°
Mean motion
3.60143 °/min
Orbital period
99.96 mins
BSTAR
0.00017168
Loading maneuver chart data...
Computing Atmospheric mass density...
Loading historical data...
Loading historical data...
Loading historical data...
Loading historical data...
Loading historical data...
Loading historical data...
Loading historical data...

Documentation

Showing up to 5 results
|